Meteorología y climatología de Navarra
Datos de la estación - Meteo Navarra

Estación de Irabia GN

Altitud 822 m.


Datos desde el 02/08/2020 hasta el 03/08/2020 en horario solar
Los datos son PROVISIONALES

Anterior Página 1 de 1 Siguiente Descargar: Formato para Excel 2000 o superior   Formato csv   Formato para OpenOffice Calc
Fecha Temperatura Humedad relativa Radiación global Insolación Precipitación Vel. viento 10 m Vel. viento 10 m Dir. viento 10 m
ºC % W/m² s l/m² m/s km/h º
02/08/2020 0:00 16.7 90 - - - - 0.0 - - - - - -
02/08/2020 0:10 16.7 92 - - - - 0.0 - - - - - -
02/08/2020 0:20 16.5 94 - - - - 0.0 - - - - - -
02/08/2020 0:30 16.3 95 - - - - 0.0 - - - - - -
02/08/2020 0:40 16.1 96 - - - - 0.0 - - - - - -
02/08/2020 0:50 16.0 96 - - - - 0.0 - - - - - -
02/08/2020 1:00 15.9 97 - - - - 0.0 - - - - - -
02/08/2020 1:10 15.9 97 - - - - 0.0 - - - - - -
02/08/2020 1:20 15.9 97 - - - - 0.1 - - - - - -
02/08/2020 1:30 15.7 97 - - - - 0.0 - - - - - -
02/08/2020 1:40 15.8 96 - - - - 0.0 - - - - - -
02/08/2020 1:50 15.8 95 - - - - 0.0 - - - - - -
02/08/2020 2:00 15.6 95 - - - - 0.0 - - - - - -
02/08/2020 2:10 15.3 94 - - - - 0.0 - - - - - -
02/08/2020 2:20 14.8 94 - - - - 0.0 - - - - - -
02/08/2020 2:30 14.5 95 - - - - 0.0 - - - - - -
02/08/2020 2:40 14.4 96 - - - - 0.0 - - - - - -
02/08/2020 2:50 14.2 95 - - - - 0.0 - - - - - -
02/08/2020 3:00 14.2 94 - - - - 0.0 - - - - - -
02/08/2020 3:10 14.2 95 - - - - 0.0 - - - - - -
02/08/2020 3:20 14.3 95 - - - - 0.0 - - - - - -
02/08/2020 3:30 14.3 96 - - - - 0.1 - - - - - -
02/08/2020 3:40 14.2 98 - - - - 0.0 - - - - - -
02/08/2020 3:50 14.2 98 - - - - 0.0 - - - - - -
02/08/2020 4:00 14.0 98 - - - - 0.0 - - - - - -
02/08/2020 4:10 14.3 98 - - - - 0.0 - - - - - -
02/08/2020 4:20 14.3 98 - - - - 0.1 - - - - - -
02/08/2020 4:30 14.4 98 - - - - 0.0 - - - - - -
02/08/2020 4:40 14.4 97 - - - - 0.0 - - - - - -
02/08/2020 4:50 14.3 97 - - - - 0.0 - - - - - -
02/08/2020 5:00 14.3 97 - - - - 0.0 - - - - - -
02/08/2020 5:10 14.2 97 - - - - 0.0 - - - - - -
02/08/2020 5:20 14.2 98 - - - - 0.0 - - - - - -
02/08/2020 5:30 14.2 98 - - - - 0.0 - - - - - -
02/08/2020 5:40 14.4 98 - - - - 0.1 - - - - - -
02/08/2020 5:50 14.5 97 - - - - 0.0 - - - - - -
02/08/2020 6:00 14.5 97 - - - - 0.0 - - - - - -
02/08/2020 6:10 14.6 98 - - - - 0.0 - - - - - -
02/08/2020 6:20 14.5 97 - - - - 0.0 - - - - - -
02/08/2020 6:30 14.6 97 - - - - 0.0 - - - - - -
02/08/2020 6:40 14.4 97 - - - - 0.1 - - - - - -
02/08/2020 6:50 14.5 97 - - - - 0.0 - - - - - -
02/08/2020 7:00 14.5 97 - - - - 0.0 - - - - - -
02/08/2020 7:10 14.7 98 - - - - 0.0 - - - - - -
02/08/2020 7:20 14.8 97 - - - - 0.0 - - - - - -
02/08/2020 7:30 14.9 96 - - - - 0.0 - - - - - -
02/08/2020 7:40 14.8 95 - - - - 0.1 - - - - - -
02/08/2020 7:50 14.8 97 - - - - 0.0 - - - - - -
02/08/2020 8:00 14.9 96 - - - - 0.0 - - - - - -
02/08/2020 8:10 14.9 96 - - - - 0.0 - - - - - -
02/08/2020 8:20 15.1 95 - - - - 0.0 - - - - - -
02/08/2020 8:30 15.5 94 - - - - 0.0 - - - - - -
02/08/2020 8:40 15.0 95 - - - - 0.0 - - - - - -
02/08/2020 8:50 14.7 97 - - - - 0.1 - - - - - -
02/08/2020 9:00 14.6 97 - - - - 0.0 - - - - - -
02/08/2020 9:10 14.5 97 - - - - 0.1 - - - - - -
02/08/2020 9:20 14.5 97 - - - - 0.0 - - - - - -
02/08/2020 9:30 14.7 97 - - - - 0.1 - - - - - -
02/08/2020 9:40 14.8 96 - - - - 0.0 - - - - - -
02/08/2020 9:50 15.0 95 - - - - 0.0 - - - - - -
02/08/2020 10:00 15.2 94 - - - - 0.0 - - - - - -
02/08/2020 10:10 15.1 92 - - - - 0.0 - - - - - -
02/08/2020 10:20 15.0 95 - - - - 0.0 - - - - - -
02/08/2020 10:30 14.9 94 - - - - 0.0 - - - - - -
02/08/2020 10:40 15.0 93 - - - - 0.0 - - - - - -
02/08/2020 10:50 15.0 94 - - - - 0.0 - - - - - -
02/08/2020 11:00 14.9 95 - - - - 0.0 - - - - - -
02/08/2020 11:10 14.6 94 - - - - 0.0 - - - - - -
02/08/2020 11:20 14.4 94 - - - - 0.0 - - - - - -
02/08/2020 11:30 14.5 96 - - - - 0.0 - - - - - -
02/08/2020 11:40 14.7 95 - - - - 0.0 - - - - - -
02/08/2020 11:50 14.7 94 - - - - 0.0 - - - - - -
02/08/2020 12:00 14.9 91 - - - - 0.0 - - - - - -
02/08/2020 12:10 15.2 90 - - - - 0.0 - - - - - -
02/08/2020 12:20 15.3 88 - - - - 0.0 - - - - - -
02/08/2020 12:30 15.5 88 - - - - 0.0 - - - - - -
02/08/2020 12:40 15.2 89 - - - - 0.0 - - - - - -
02/08/2020 12:50 15.1 89 - - - - 0.0 - - - - - -
02/08/2020 13:00 15.1 87 - - - - 0.0 - - - - - -
02/08/2020 13:10 16.0 82 - - - - 0.0 - - - - - -
02/08/2020 13:20 16.2 80 - - - - 0.0 - - - - - -
02/08/2020 13:30 16.4 77 - - - - 0.0 - - - - - -
02/08/2020 13:40 16.3 78 - - - - 0.0 - - - - - -
02/08/2020 13:50 16.3 79 - - - - 0.0 - - - - - -
02/08/2020 14:00 16.2 78 - - - - 0.0 - - - - - -
02/08/2020 14:10 16.2 79 - - - - 0.0 - - - - - -
02/08/2020 14:20 16.0 81 - - - - 0.0 - - - - - -
02/08/2020 14:30 15.8 82 - - - - 0.0 - - - - - -
02/08/2020 14:40 15.9 81 - - - - 0.0 - - - - - -
02/08/2020 14:50 16.0 81 - - - - 0.0 - - - - - -
02/08/2020 15:00 16.2 79 - - - - 0.0 - - - - - -
02/08/2020 15:10 16.0 81 - - - - 0.0 - - - - - -
02/08/2020 15:20 15.9 82 - - - - 0.0 - - - - - -
02/08/2020 15:30 16.0 81 - - - - 0.0 - - - - - -
02/08/2020 15:40 16.2 79 - - - - 0.0 - - - - - -
02/08/2020 15:50 16.2 81 - - - - 0.0 - - - - - -
02/08/2020 16:00 16.4 79 - - - - 0.0 - - - - - -
02/08/2020 16:10 16.6 75 - - - - 0.0 - - - - - -
02/08/2020 16:20 16.6 75 - - - - 0.0 - - - - - -
02/08/2020 16:30 16.4 75 - - - - 0.0 - - - - - -
02/08/2020 16:40 16.4 77 - - - - 0.0 - - - - - -
02/08/2020 16:50 16.2 78 - - - - 0.0 - - - - - -
02/08/2020 17:00 16.1 78 - - - - 0.0 - - - - - -
02/08/2020 17:10 16.3 79 - - - - 0.0 - - - - - -
02/08/2020 17:20 16.1 76 - - - - 0.0 - - - - - -
02/08/2020 17:30 16.0 77 - - - - 0.0 - - - - - -
02/08/2020 17:40 15.9 79 - - - - 0.0 - - - - - -
02/08/2020 17:50 15.8 84 - - - - 0.0 - - - - - -
02/08/2020 18:00 15.7 80 - - - - 0.0 - - - - - -
02/08/2020 18:10 15.3 83 - - - - 0.0 - - - - - -
02/08/2020 18:20 15.4 81 - - - - 0.0 - - - - - -
02/08/2020 18:30 15.7 80 - - - - 0.0 - - - - - -
02/08/2020 18:40 15.5 83 - - - - 0.0 - - - - - -
02/08/2020 18:50 15.4 81 - - - - 0.0 - - - - - -
02/08/2020 19:00 15.3 82 - - - - 0.0 - - - - - -
02/08/2020 19:10 15.1 86 - - - - 0.0 - - - - - -
02/08/2020 19:20 15.0 84 - - - - 0.0 - - - - - -
02/08/2020 19:30 14.9 84 - - - - 0.0 - - - - - -
02/08/2020 19:40 15.0 85 - - - - 0.0 - - - - - -
02/08/2020 19:50 14.9 85 - - - - 0.0 - - - - - -
02/08/2020 20:00 14.9 85 - - - - 0.0 - - - - - -
02/08/2020 20:10 14.6 87 - - - - 0.0 - - - - - -
02/08/2020 20:20 14.3 87 - - - - 0.0 - - - - - -
02/08/2020 20:30 14.2 88 - - - - 0.0 - - - - - -
02/08/2020 20:40 14.2 87 - - - - 0.0 - - - - - -
02/08/2020 20:50 14.2 84 - - - - 0.0 - - - - - -
02/08/2020 21:00 14.2 83 - - - - 0.0 - - - - - -
02/08/2020 21:10 14.2 82 - - - - 0.0 - - - - - -
02/08/2020 21:20 14.3 81 - - - - 0.0 - - - - - -
02/08/2020 21:30 14.2 82 - - - - 0.0 - - - - - -
02/08/2020 21:40 14.2 83 - - - - 0.0 - - - - - -
02/08/2020 21:50 14.1 84 - - - - 0.0 - - - - - -
02/08/2020 22:00 14.0 84 - - - - 0.0 - - - - - -
02/08/2020 22:10 13.9 85 - - - - 0.0 - - - - - -
02/08/2020 22:20 13.9 84 - - - - 0.0 - - - - - -
02/08/2020 22:30 13.9 85 - - - - 0.0 - - - - - -
02/08/2020 22:40 13.9 84 - - - - 0.0 - - - - - -
02/08/2020 22:50 13.7 84 - - - - 0.0 - - - - - -
02/08/2020 23:00 13.9 84 - - - - 0.0 - - - - - -
02/08/2020 23:10 13.8 85 - - - - 0.0 - - - - - -
02/08/2020 23:20 13.6 85 - - - - 0.0 - - - - - -
02/08/2020 23:30 13.5 85 - - - - 0.0 - - - - - -
02/08/2020 23:40 13.4 84 - - - - 0.0 - - - - - -
02/08/2020 23:50 13.4 83 - - - - 0.0 - - - - - -
Anterior Página 1 de 1 Siguiente

NOTA: Tipo de datos según el color:
   - Valores diarios o 10 minutos correctos
   - Valores diarios calculados a partir de un número de datos 10 minutos menor que 144 y mayor que 120, o de un número de datos semihorarios menor que 48 y mayor que 40 (caso de las estaciones de INTIA y del Ministerio)
   - Valores diez minutos estimados


Contacto        Enlaces        Aviso legal